When you browse on this site, cookies collect data to enhance your experience and personalize the content and advertising you see.
Visit our Privacy Policy to learn more. By continuing to use the site, you agree to this use of cookies and data.
  • Em Portugal
  • Lista de países
  • Para 7 dias
  • Temperatura da água
  • Mapas de satélite
  • Mapa do tempo
  • Widgets de tempo
  • user-avatar
    Iniciar Sessão

    Previsão horária em Berat

    Hoje, 17 Janeiro, Quinta-feira

    Tempo Temperatura Precipitação Vento Pressão Humidade
    00:00 +4°C° 0 mm 1 m/s 749 mmHg 66%
    01:00 +4°C° 0 mm 1 m/s 749 mmHg 66%
    02:00 +4°C° 0 mm 1 m/s 749 mmHg 66%
    03:00 +4°C° 0 mm 1 m/s 749 mmHg 66%
    04:00 +3°C° 0 mm 2 m/s 749 mmHg 65%
    05:00 +3°C° 0 mm 2 m/s 749 mmHg 65%
    06:00 +3°C° 0 mm 2 m/s 748 mmHg 64%
    07:00 +3°C° 0 mm 2 m/s 748 mmHg 64%
    08:00 +5°C° 0 mm 2 m/s 748 mmHg 59%
    09:00 +8°C° 0 mm 1 m/s 748 mmHg 55%
    10:00 +10°C° 0 mm 1 m/s 749 mmHg 51%
    11:00 +11°C° 0 mm 1 m/s 748 mmHg 49%
    12:00 +11°C° 0 mm 1 m/s 748 mmHg 46%
    13:00 +12°C° 0 mm 1 m/s 747 mmHg 43%
    14:00 +11°C° 0 mm 1 m/s 747 mmHg 48%
    15:00 +10°C° 0 mm 0 m/s 747 mmHg 53%
    16:00 +9°C° 0 mm 0 m/s 747 mmHg 58%
    17:00 +8°C° 0 mm 1 m/s 747 mmHg 61%
    18:00 +6°C° 0 mm 2 m/s 747 mmHg 64%
    19:00 +5°C° 0 mm 2 m/s 747 mmHg 67%
    20:00 +4°C° 0 mm 3 m/s 747 mmHg 69%
    21:00 +4°C° 0 mm 3 m/s 747 mmHg 71%
    22:00 +3°C° 0 mm 3 m/s 747 mmHg 73%
    23:00 +4°C° 0 mm 3 m/s 747 mmHg 75%

    Amanhã, 18 Janeiro, Sexta-feira

    Tempo Temperatura Precipitação Vento Pressão Humidade
    00:00 +4°C° 0 mm 3 m/s 747 mmHg 77%
    01:00 +4°C° 0 mm 3 m/s 747 mmHg 79%
    02:00 +4°C° 0.1 mm 3 m/s 746 mmHg 80%
    03:00 +5°C° 0.1 mm 3 m/s 746 mmHg 81%
    04:00 +6°C° 0.1 mm 2 m/s 745 mmHg 83%
    05:00 +5°C° 1.2 mm 3 m/s 745 mmHg 84%
    06:00 +5°C° 1.2 mm 3 m/s 745 mmHg 86%
    07:00 +7°C° 1.2 mm 3 m/s 745 mmHg 88%
    08:00 +7°C° 1 mm 3 m/s 746 mmHg 86%
    09:00 +8°C° 1 mm 3 m/s 746 mmHg 85%
    10:00 +8°C° 1 mm 3 m/s 746 mmHg 83%
    11:00 +8°C° 0.8 mm 3 m/s 746 mmHg 83%
    12:00 +9°C° 0.8 mm 3 m/s 745 mmHg 82%
    13:00 +9°C° 0.8 mm 3 m/s 745 mmHg 82%
    14:00 +9°C° 1.1 mm 3 m/s 745 mmHg 83%
    15:00 +8°C° 1.1 mm 3 m/s 745 mmHg 84%
    16:00 +8°C° 1.1 mm 3 m/s 745 mmHg 85%
    17:00 +8°C° 0.1 mm 3 m/s 745 mmHg 85%
    18:00 +7°C° 0.1 mm 3 m/s 745 mmHg 86%
    19:00 +7°C° 0.1 mm 3 m/s 745 mmHg 87%
    20:00 +7°C° 0 mm 3 m/s 746 mmHg 87%
    21:00 +7°C° 0 mm 3 m/s 746 mmHg 87%
    22:00 +7°C° 0 mm 3 m/s 746 mmHg 87%
    23:00 +7°C° 0 mm 3 m/s 746 mmHg 87%

    Depois de amanhã, 19 Janeiro, Sábado

    Tempo Temperatura Precipitação Vento Pressão Humidade
    00:00 +5°C° 0 mm 3 m/s 746 mmHg 87%
    01:00 +5°C° 0 mm 3 m/s 746 mmHg 87%
    02:00 +5°C° 0 mm 3 m/s 746 mmHg 86%
    03:00 +5°C° 0 mm 3 m/s 745 mmHg 85%
    04:00 +5°C° 0 mm 3 m/s 745 mmHg 84%
    05:00 +5°C° 0 mm 3 m/s 745 mmHg 82%
    06:00 +5°C° 0 mm 3 m/s 745 mmHg 81%
    07:00 +5°C° 0 mm 3 m/s 745 mmHg 80%
    08:00 +7°C° 0 mm 3 m/s 746 mmHg 77%
    09:00 +9°C° 0 mm 3 m/s 746 mmHg 74%
    10:00 +11°C° 0 mm 3 m/s 746 mmHg 71%
    11:00 +11°C° 0.1 mm 3 m/s 745 mmHg 71%
    12:00 +12°C° 0.1 mm 3 m/s 745 mmHg 72%
    13:00 +12°C° 0.1 mm 3 m/s 745 mmHg 72%
    14:00 +11°C° 0.8 mm 3 m/s 744 mmHg 77%
    15:00 +10°C° 0.8 mm 3 m/s 744 mmHg 81%
    16:00 +9°C° 0.8 mm 2 m/s 744 mmHg 86%
    17:00 +9°C° 0.5 mm 2 m/s 744 mmHg 86%
    18:00 +8°C° 0.5 mm 2 m/s 744 mmHg 86%
    19:00 +8°C° 0.5 mm 3 m/s 744 mmHg 85%
    20:00 +8°C° 0.2 mm 3 m/s 744 mmHg 85%
    21:00 +8°C° 0.2 mm 3 m/s 744 mmHg 84%
    22:00 +8°C° 0.2 mm 3 m/s 744 mmHg 84%
    23:00 +8°C° 0.1 mm 3 m/s 744 mmHg 84%

    20 Janeiro, Domingo

    Tempo Temperatura Precipitação Vento Pressão Humidade
    00:00 +7°C° 0.1 mm 3 m/s 744 mmHg 83%
    01:00 +7°C° 0.1 mm 3 m/s 743 mmHg 83%
    02:00 +7°C° 0 mm 3 m/s 743 mmHg 83%
    03:00 +7°C° 0 mm 3 m/s 743 mmHg 84%
    04:00 +5°C° 0 mm 3 m/s 743 mmHg 84%
    05:00 +5°C° 0 mm 3 m/s 743 mmHg 85%
    06:00 +5°C° 0 mm 3 m/s 743 mmHg 85%
    07:00 +5°C° 0 mm 3 m/s 743 mmHg 86%
    08:00 +8°C° 0.1 mm 2 m/s 743 mmHg 82%
    09:00 +9°C° 0.1 mm 2 m/s 744 mmHg 78%
    10:00 +12°C° 0.1 mm 2 m/s 744 mmHg 74%
    11:00 +12°C° 0.6 mm 2 m/s 744 mmHg 73%
    12:00 +13°C° 0.6 mm 2 m/s 744 mmHg 71%
    13:00 +13°C° 0.6 mm 2 m/s 743 mmHg 69%
    14:00 +12°C° 0.4 mm 1 m/s 743 mmHg 73%
    15:00 +12°C° 0.4 mm 1 m/s 743 mmHg 77%
    16:00 +11°C° 0.4 mm 1 m/s 743 mmHg 81%
    17:00 +10°C° 0.1 mm 1 m/s 744 mmHg 84%
    18:00 +9°C° 0.1 mm 1 m/s 744 mmHg 87%
    19:00 +8°C° 0.1 mm 1 m/s 744 mmHg 89%
    20:00 +8°C° 0 mm 1 m/s 745 mmHg 89%
    21:00 +8°C° 0 mm 1 m/s 745 mmHg 88%
    22:00 +6°C° 0 mm 2 m/s 745 mmHg 87%
    23:00 +6°C° 0 mm 2 m/s 745 mmHg 86%

    21 Janeiro, Segunda-feira

    Tempo Temperatura Precipitação Vento Pressão Humidade
    00:00 +6°C° 0 mm 2 m/s 745 mmHg 85%
    01:00 +6°C° 0 mm 2 m/s 745 mmHg 84%
    02:00 +6°C° 0 mm 2 m/s 745 mmHg 84%
    03:00 +5°C° 0 mm 2 m/s 745 mmHg 84%
    04:00 +5°C° 0 mm 2 m/s 745 mmHg 83%
    05:00 +5°C° 0 mm 2 m/s 745 mmHg 83%
    06:00 +5°C° 0 mm 2 m/s 745 mmHg 82%
    07:00 +5°C° 0 mm 2 m/s 745 mmHg 81%
    08:00 +7°C° 0 mm 2 m/s 745 mmHg 77%
    09:00 +9°C° 0 mm 2 m/s 745 mmHg 72%
    10:00 +10°C° 0 mm 2 m/s 745 mmHg 67%
    11:00 +12°C° 0 mm 2 m/s 745 mmHg 64%
    12:00 +13°C° 0 mm 2 m/s 744 mmHg 62%
    13:00 +14°C° 0 mm 2 m/s 744 mmHg 59%
    14:00 +13°C° 0.2 mm 2 m/s 744 mmHg 65%
    15:00 +12°C° 0.2 mm 2 m/s 744 mmHg 71%
    16:00 +10°C° 0.2 mm 2 m/s 744 mmHg 77%
    17:00 +10°C° 0.1 mm 2 m/s 744 mmHg 78%
    18:00 +9°C° 0.1 mm 2 m/s 744 mmHg 79%
    19:00 +9°C° 0.1 mm 2 m/s 744 mmHg 81%
    20:00 +8°C° 0 mm 3 m/s 744 mmHg 80%
    21:00 +8°C° 0 mm 3 m/s 744 mmHg 79%
    22:00 +8°C° 0 mm 3 m/s 744 mmHg 78%
    23:00 +8°C° 0.1 mm 3 m/s 743 mmHg 77%

    22 Janeiro, Terça-feira

    Tempo Temperatura Precipitação Vento Pressão Humidade
    00:00 +8°C° 0.1 mm 3 m/s 743 mmHg 76%
    01:00 +8°C° 0.1 mm 3 m/s 743 mmHg 75%
    02:00 +7°C° 0.1 mm 3 m/s 742 mmHg 75%
    03:00 +7°C° 0.1 mm 3 m/s 742 mmHg 76%
    04:00 +7°C° 0.1 mm 3 m/s 741 mmHg 77%
    05:00 +7°C° 0.6 mm 3 m/s 741 mmHg 78%
    06:00 +7°C° 0.6 mm 3 m/s 741 mmHg 80%
    07:00 +7°C° 0.6 mm 3 m/s 740 mmHg 81%
    08:00 +8°C° 0.9 mm 3 m/s 740 mmHg 80%
    09:00 +7°C° 0.9 mm 4 m/s 740 mmHg 79%
    10:00 +8°C° 0.9 mm 4 m/s 740 mmHg 78%
    11:00 +8°C° 0.3 mm 4 m/s 739 mmHg 77%
    12:00 +10°C° 0.3 mm 4 m/s 739 mmHg 77%
    13:00 +9°C° 0.3 mm 5 m/s 739 mmHg 76%
    14:00 +10°C° 0.7 mm 4 m/s 739 mmHg 78%
    15:00 +10°C° 0.7 mm 3 m/s 738 mmHg 80%
    16:00 +10°C° 0.7 mm 3 m/s 738 mmHg 83%
    17:00 +9°C° 0.7 mm 2 m/s 738 mmHg 84%
    18:00 +9°C° 0.7 mm 2 m/s 738 mmHg 86%
    19:00 +8°C° 0.7 mm 2 m/s 738 mmHg 87%
    20:00 +8°C° 0.5 mm 2 m/s 738 mmHg 88%
    21:00 +8°C° 0.5 mm 3 m/s 738 mmHg 88%
    22:00 +7°C° 0.5 mm 3 m/s 737 mmHg 88%
    23:00 +7°C° 1 mm 3 m/s 737 mmHg 89%
    Mostrar mais